Wind_Speed
21 23 24 25 26 27 29 31 31 32 32 32 32 33 34 34 33 31 29 25 21 22 23 19 13 7 1 5 10 13 14 13 16 21 17 12 14 14 14 15 16 15 12 9 8 7 4 2 3 4 4 3 1 0 1 1 2 3 2 3 2 2 3 3 2 4 7 9 7 7 7 7 9 8 6 5 3 5 2 5 7 5 8 13 16 18 18 19
21 23 24 25 25 27 28 30 31 31 32 32 32 32 33 33 33 32 30 25 21 23 23 19 14 8 1 7 10 8 9 7 13 20 15 14 14 13 13 14 15 15 12 9 8 9 7 5 7 7 5 2 1 0 1 1 1 2 3 3 1 5 4 3 2 3 8 10 11 10 8 6 8 9 7 8 7 3 6 10 11 11 14 16 17 20 20 21
21 23 24 25 25 26 27 29 30 30 31 32 31 32 32 32 32 32 31 25 21 23 23 18 14 9 2 6 12 7 4 3 8 13 12 15 14 12 13 14 15 14 12 8 7 7 6 6 7 7 5 3 1 0 1 0 1 1 3 3 4 5 2 3 1 3 8 10 12 10 9 7 4 6 6 8 9 8 12 10 12 15 17 17 17 20 21 22
21 22 23 24 25 26 27 28 29 29 30 31 31 31 32 32 31 32 32 25 20 23 24 17 13 8 2 4 10 8 3 4 4 6 11 16 14 13 13 14 15 13 11 8 7 5 5 6 6 5 5 4 1 1 2 1 2 1 3 2 6 3 1 4 2 4 8 11 10 10 11 7 4 4 5 7 6 7 11 11 13 15 15 15 16 18 20 22
21 22 23 24 25 26 26 27 28 28 29 30 30 30 31 31 30 32 31 25 20 23 24 15 10 9 5 4 8 8 2 3 2 5 11 16 15 13 13 14 14 12 11 9 8 7 6 6 6 4 4 3 1 2 0 4 2 2 1 4 7 3 1 3 2 4 8 11 8 9 9 7 7 4 3 6 5 8 9 11 13 13 14 15 15 16 18 20
20 22 23 24 25 25 26 27 27 28 28 29 29 29 30 30 30 31 30 24 22 24 23 13 8 11 10 9 7 5 2 1 2 7 12 16 15 13 12 12 12 12 11 10 9 8 6 6 5 3 3 3 2 2 2 3 0 3 1 5 5 4 3 2 2 3 7 10 9 9 7 8 8 3 4 6 8 9 9 11 12 13 15 15 16 16 16 17
20 21 22 24 25 25 25 26 27 27 28 28 29 29 29 30 30 31 28 24 25 26 20 11 5 9 11 11 7 4 2 2 4 10 13 14 13 11 10 9 11 11 9 8 9 8 6 6 5 4 4 3 0 2 4 2 2 3 0 5 4 3 2 1 2 4 6 8 9 9 9 9 5 2 3 7 10 9 10 12 12 14 15 15 16 15 15 16
19 21 22 24 25 24 25 25 26 26 27 28 28 28 29 30 29 30 27 24 28 25 15 9 3 5 5 3 1 3 5 3 6 12 13 11 9 9 9 8 10 9 6 6 7 8 6 6 6 4 4 0 1 3 4 4 4 4 3 4 3 0 1 1 2 3 4 5 7 10 10 5 3 2 3 8 10 10 13 12 12 13 13 14 14 14 15 15
19 21 22 24 24 24 25 25 26 26 27 27 27 27 28 29 29 29 26 25 29 23 11 8 4 3 4 2 3 1 3 3 8 12 12 10 7 8 9 8 9 7 4 4 6 7 5 5 5 3 4 1 2 4 2 4 1 1 6 5 2 2 3 3 2 1 0 3 8 11 10 3 4 1 4 8 9 13 14 12 12 12 13 13 12 13 14 14
18 20 22 23 24 24 25 25 26 26 27 27 26 27 28 29 28 28 26 24 27 19 9 8 6 3 4 4 5 2 2 3 8 12 12 9 6 7 8 9 9 6 5 4 6 7 4 4 4 3 4 2 2 4 1 3 1 2 7 7 7 4 4 4 4 5 4 2 10 11 11 4 3 4 4 7 9 14 14 13 12 11 12 12 11 12 13 14
18 20 21 23 23 24 25 25 26 26 27 27 26 26 27 28 27 26 25 23 25 17 7 8 9 5 2 4 3 1 3 4 8 12 12 9 5 6 9 9 8 6 6 4 4 5 4 4 2 2 1 0 2 4 3 1 3 5 7 8 6 7 6 5 6 6 6 2 9 10 13 6 5 4 4 8 9 13 14 13 12 11 11 10 11 11 11 13
18 19 21 22 22 24 24 25 26 26 26 26 25 25 27 27 25 25 24 22 23 16 5 3 6 6 2 1 3 2 3 4 9 12 13 10 6 7 9 9 6 4 5 4 3 3 4 3 3 4 2 2 4 4 2 1 3 4 5 7 2 11 8 4 5 7 6 4 8 10 10 4 6 4 6 7 7 12 13 12 11 11 9 9 10 9 10 12
17 18 20 21 22 23 24 25 26 25 26 26 25 25 26 26 23 24 23 20 22 15 7 4 2 2 3 3 4 1 1 5 9 13 13 12 8 7 8 9 6 3 3 3 2 2 3 2 4 5 2 4 5 2 1 2 4 4 3 4 2 7 8 5 3 7 6 3 6 9 6 2 2 7 4 4 7 12 12 11 9 8 8 8 8 8 9 12
16 18 19 20 22 23 23 25 25 25 26 25 25 24 24 24 21 23 21 19 21 12 7 4 3 1 2 3 2 1 3 5 8 12 12 11 9 7 8 9 6 3 2 1 2 2 2 2 4 4 2 4 3 2 3 4 4 3 3 2 1 1 4 6 3 3 2 2 5 9 6 5 6 2 3 5 12 12 11 10 8 7 7 7 7 7 8 11
16 17 19 20 22 22 23 24 25 26 25 25 25 23 23 21 19 22 18 17 20 9 4 3 4 2 1 4 0 1 4 4 5 12 12 12 9 6 7 9 5 3 3 2 2 2 2 2 4 4 2 2 3 5 6 3 5 3 1 1 1 3 1 6 5 4 3 5 6 7 6 6 9 9 7 11 15 12 11 10 8 8 7 7 6 7 8 9
16 17 18 19 21 22 23 24 25 26 25 25 24 23 22 18 19 20 14 16 18 5 1 2 2 3 1 4 1 1 3 3 6 12 12 12 10 6 9 9 4 4 3 2 2 3 4 4 3 3 3 3 3 5 7 4 4 3 1 3 3 4 3 1 5 6 6 6 6 3 4 6 9 9 8 15 14 13 12 9 8 7 6 6 5 6 7 8
16 16 17 19 20 22 23 24 25 26 26 25 24 24 20 14 19 17 9 17 15 2 3 2 1 2 1 3 2 2 2 3 7 11 11 13 10 7 8 6 4 4 4 4 4 4 4 5 2 1 3 3 3 5 6 5 2 2 4 5 5 5 6 4 2 3 5 5 7 5 5 7 11 7 11 13 12 14 11 9 8 6 5 5 5 6 7 8
16 16 17 18 20 21 23 24 25 26 26 25 25 25 16 13 18 10 7 19 10 4 2 3 0 2 2 2 1 0 4 5 7 9 10 12 10 7 6 5 5 4 5 5 4 2 2 3 3 3 3 1 5 5 4 4 4 6 5 5 7 6 7 7 3 2 4 5 7 6 6 8 12 5 11 11 11 13 10 9 7 5 5 5 6 7 8 9
15 16 16 18 19 20 22 23 25 26 25 25 27 22 12 13 11 2 9 18 6 2 3 2 2 3 0 2 0 4 6 5 6 6 7 11 10 8 7 7 5 4 6 4 2 3 4 3 4 5 3 3 5 4 3 5 5 7 7 6 8 7 7 8 4 5 5 6 6 6 9 10 13 4 10 10 10 11 9 8 5 4 4 4 5 7 8 8
15 15 16 17 18 20 21 22 23 24 23 25 26 18 8 9 6 1 8 11 4 2 6 4 3 4 2 2 2 7 5 3 3 2 6 12 11 7 6 6 6 5 3 4 6 3 1 5 5 2 4 5 5 3 4 5 5 7 8 7 9 9 7 6 4 5 6 5 6 9 12 12 15 5 10 10 9 10 8 7 5 4 4 4 5 7 7 8
15 15 15 17 18 19 19 21 22 21 20 22 21 11 4 6 5 4 7 4 3 2 4 3 3 6 4 2 3 6 2 4 4 1 8 12 7 4 2 3 5 5 3 4 6 2 1 6 2 3 4 5 4 3 4 5 7 7 7 8 8 8 7 7 3 4 4 5 6 10 12 14 14 2 12 10 9 9 7 6 6 5 5 5 5 6 7 7
14 14 15 16 17 18 18 19 18 17 18 19 16 8 4 3 1 1 3 5 1 2 2 2 2 4 2 0 2 3 0 3 4 1 10 12 4 2 4 5 6 7 6 5 5 3 5 4 2 4 3 2 3 3 4 6 7 7 6 6 7 6 8 5 2 3 5 7 7 9 11 14 6 9 12 8 9 8 6 6 6 5 5 5 6 6 8 9
14 14 14 14 16 16 17 16 14 15 17 15 12 7 3 2 2 2 2 6 4 3 3 3 3 2 3 3 2 2 2 2 1 3 10 11 3 2 5 6 7 8 6 5 4 5 7 2 4 2 1 2 4 3 5 7 7 7 5 6 7 6 7 3 0 7 11 6 5 9 10 9 2 11 8 7 9 7 6 6 6 4 4 5 6 7 9 11
13 13 13 13 15 14 15 14 10 12 13 10 9 6 2 3 3 2 1 5 4 1 2 0 1 1 1 2 1 2 2 1 1 3 9 9 4 2 3 4 7 9 4 3 4 7 9 3 4 1 2 2 5 5 6 6 6 6 4 4 6 6 7 7 8 13 11 1 4 8 11 5 7 11 8 7 7 7 6 5 5 4 4 5 6 8 9 11
13 12 12 13 13 13 14 10 7 10 8 5 6 4 2 2 5 3 2 4 3 1 1 2 1 1 1 2 1 2 1 0 1 3 6 6 5 3 2 1 4 8 5 3 5 8 7 2 2 2 2 2 5 7 4 2 6 7 1 2 5 6 8 10 12 12 9 2 5 9 9 4 5 11 10 9 8 8 6 3 4 3 5 6 7 8 9 10
12 12 11 12 11 12 10 4 4 9 4 3 4 3 2 1 5 4 1 4 3 1 2 2 2 2 3 1 1 1 1 1 3 3 3 3 3 2 4 2 1 5 5 3 5 5 2 2 1 1 2 4 6 6 1 2 6 6 2 2 4 6 8 10 12 10 6 7 6 6 6 6 5 7 11 12 11 10 7 3 4 4 5 6 8 9 9 11
12 11 11 11 11 10 7 2 4 7 2 0 3 3 2 1 5 3 1 4 3 1 2 1 0 1 2 2 0 1 2 1 3 2 1 3 2 2 5 5 3 3 2 2 5 2 2 1 1 1 3 5 6 5 1 2 5 3 3 3 5 7 9 10 10 7 7 10 10 6 8 8 8 6 10 13 11 10 6 2 4 4 5 8 10 10 11 13
11 10 10 10 9 6 3 2 4 3 0 3 3 2 1 3 5 2 2 4 2 1 1 1 1 1 1 2 2 3 2 1 2 0 1 3 2 2 5 7 7 5 1 2 6 1 2 1 1 1 3 4 4 2 3 0 4 2 5 4 5 7 9 8 8 8 8 9 8 6 6 6 7 3 10 11 10 9 4 2 3 5 8 10 11 12 13 14
11 10 10 9 8 4 2 3 3 1 2 4 2 0 4 6 3 1 2 3 1 2 1 1 2 2 1 1 4 5 2 1 1 1 2 2 2 0 3 3 4 5 2 5 9 4 2 2 2 1 3 4 2 4 3 0 2 3 4 6 7 8 8 8 7 8 7 6 9 9 7 6 7 4 7 8 9 7 1 3 4 7 9 11 12 13 14 15
11 10 9 8 7 4 4 3 3 3 3 2 0 4 6 4 2 3 3 3 0 1 1 1 2 1 2 4 5 5 4 3 1 1 3 2 1 2 1 1 2 5 5 6 9 7 0 2 0 1 3 2 2 3 2 1 3 4 5 7 7 7 7 7 6 6 6 6 6 6 8 6 6 4 5 4 3 3 1 3 4 8 10 11 12 13 15 15
11 10 8 7 5 3 3 3 4 3 2 1 3 6 3 2 2 3 4 1 1 1 3 2 1 0 2 3 3 3 3 3 3 2 4 1 2 4 3 2 2 3 6 6 6 5 3 3 2 1 1 1 2 3 2 2 5 5 5 5 6 6 6 5 4 2 5 6 1 5 4 5 7 4 1 4 5 5 2 4 5 8 11 12 13 14 15 14
11 10 8 6 4 4 4 4 4 3 3 3 4 3 3 3 4 6 4 1 0 2 2 2 1 0 0 1 3 3 2 3 3 2 3 0 2 4 2 2 2 3 6 3 1 2 3 4 3 3 1 3 3 4 3 4 5 5 4 3 5 6 5 4 3 3 6 5 3 7 3 4 10 9 4 7 7 4 3 5 6 9 12 14 15 15 14 13
11 11 9 6 4 6 8 7 5 5 4 4 2 3 3 3 5 4 3 2 0 1 1 1 2 1 1 2 5 2 0 3 3 2 0 1 3 3 1 1 0 3 5 4 5 5 3 2 5 4 2 3 5 4 3 3 3 3 2 2 3 5 5 6 5 5 7 4 4 4 4 6 8 10 7 9 8 5 5 6 6 10 13 14 15 15 14 14
12 11 10 8 6 8 9 8 7 6 4 3 2 4 4 6 5 1 3 4 0 1 2 2 1 2 4 6 4 1 2 4 3 2 2 3 3 4 3 4 5 3 4 5 6 5 6 3 4 4 2 3 5 3 3 2 1 1 1 1 3 4 4 6 5 6 7 7 4 2 3 5 5 3 6 10 7 5 4 6 7 10 12 13 13 14 14 14
11 11 12 10 9 10 9 9 9 7 4 2 4 5 6 7 4 1 4 2 1 1 2 2 2 4 7 8 3 2 4 3 3 3 4 5 5 5 4 5 7 6 3 4 2 1 7 6 3 2 1 2 3 1 2 2 1 2 1 0 2 2 4 5 6 7 7 9 8 4 3 4 3 4 11 9 5 3 3 6 8 12 13 13 13 13 14 14
10 9 12 11 11 11 11 11 10 8 5 4 5 7 8 7 4 2 2 1 1 0 1 2 5 6 7 5 4 4 3 2 3 3 4 7 8 7 4 3 7 9 6 4 2 1 5 4 5 4 0 2 0 1 1 2 1 2 2 2 1 3 2 5 8 4 2 7 7 5 5 7 4 4 9 8 4 2 4 8 10 13 14 14 13 12 13 14
8 7 8 9 10 11 13 13 11 8 5 5 8 9 7 6 7 6 2 2 0 1 2 5 4 4 5 4 4 6 4 2 4 4 2 4 5 6 7 3 5 10 7 3 2 1 2 3 4 5 2 2 1 2 1 2 2 1 2 1 3 3 1 2 4 3 3 9 7 4 8 8 6 3 6 8 3 3 7 10 12 14 15 14 13 13 15 16
8 6 6 9 12 12 14 14 10 7 4 5 10 11 7 7 8 6 4 4 1 2 4 7 4 4 5 6 5 6 7 2 4 5 3 3 3 4 8 5 5 7 4 2 2 1 1 3 2 2 1 3 1 2 3 2 1 1 0 0 1 2 2 3 3 3 6 8 7 6 8 7 7 4 4 6 3 7 9 11 14 16 15 14 14 16 18 18
6 3 3 8 11 12 15 14 8 5 6 7 10 10 7 9 10 6 6 5 3 3 6 8 7 6 7 7 5 4 8 6 5 4 4 5 4 5 9 5 5 7 4 4 2 0 1 3 2 1 2 3 2 4 6 5 3 3 0 1 1 1 3 3 2 1 5 7 7 8 8 4 4 2 4 2 6 8 9 12 14 15 15 14 15 16 18 19
5 2 2 7 10 13 15 11 6 6 7 8 10 7 3 6 8 6 7 7 5 5 7 8 8 9 9 8 7 5 7 8 8 7 5 5 4 5 10 6 6 8 4 2 1 0 2 4 3 1 2 2 3 4 5 5 5 5 5 5 3 3 2 3 3 2 3 6 6 7 9 5 3 4 1 4 7 5 8 14 14 14 15 15 16 17 18 18
3 2 2 7 12 15 14 7 5 7 7 8 11 9 4 3 6 7 8 8 7 7 6 7 9 10 9 8 8 6 6 7 8 7 6 6 7 6 7 7 9 11 6 2 2 2 2 3 3 2 3 5 4 1 1 3 2 5 6 6 6 6 5 4 5 3 2 4 5 6 11 8 3 2 3 5 3 4 10 15 13 14 17 16 16 18 19 19
3 4 2 9 16 17 11 6 5 5 7 8 7 7 5 3 5 7 8 6 5 6 4 5 9 10 8 9 8 6 6 7 7 7 6 9 10 5 3 7 10 11 6 2 1 1 0 0 3 5 4 4 2 2 2 4 3 3 5 5 5 6 7 6 6 3 2 6 6 5 11 8 4 4 2 1 2 6 11 13 13 14 15 15 18 20 19 19
3 3 3 9 16 14 7 6 6 6 8 5 3 6 6 4 5 8 9 7 5 5 5 6 8 8 8 8 8 9 8 5 7 9 7 9 7 1 2 8 10 8 4 1 1 1 1 1 3 6 3 3 3 1 0 0 2 4 5 7 6 6 7 7 5 2 2 7 6 4 11 7 5 6 3 4 4 9 11 12 14 13 13 15 19 20 19 20
3 2 2 9 15 11 6 8 8 9 9 6 6 10 7 4 7 10 10 10 8 7 7 7 7 8 9 8 9 11 8 5 7 9 8 8 3 3 2 5 6 5 2 1 3 4 3 3 3 3 4 3 3 3 3 4 5 5 6 8 8 8 7 4 2 1 3 7 8 7 11 9 1 4 5 5 9 13 13 13 13 12 13 15 17 18 19 19
2 2 1 7 11 8 5 5 6 9 10 11 13 14 10 6 8 12 12 12 12 10 7 5 5 8 7 6 7 10 9 9 8 4 3 4 2 2 2 1 1 1 1 2 1 2 3 3 4 5 6 7 5 3 2 4 5 5 6 10 11 11 11 6 2 5 6 7 10 11 11 11 7 6 9 12 13 15 14 14 12 12 14 16 16 16 17 18
3 4 2 4 6 7 4 3 4 7 8 11 12 12 14 13 8 10 13 14 15 13 8 3 3 5 6 6 6 10 11 12 10 5 3 4 2 1 1 2 3 2 2 3 3 0 2 3 6 10 11 10 7 3 2 5 5 6 8 13 13 13 13 8 4 7 8 7 11 13 12 15 15 14 16 15 14 15 14 13 12 13 15 16 16 17 17 18
4 5 5 5 3 6 6 6 7 7 6 9 9 8 14 16 9 8 13 12 10 12 9 5 6 8 8 8 7 9 10 11 12 11 7 4 3 1 3 3 2 2 1 1 2 0 1 4 8 13 15 13 10 7 2 6 7 9 10 13 15 14 13 11 10 10 7 6 12 11 11 15 16 16 16 14 14 15 13 12 13 14 15 16 17 18 20 20
5 3 5 9 6 7 8 9 11 12 11 10 9 10 14 17 14 11 10 5 4 9 8 8 13 17 15 12 8 9 9 7 9 12 8 4 4 4 3 2 0 1 2 1 1 0 2 5 7 10 14 14 12 11 7 6 9 11 11 13 15 16 15 16 17 15 11 11 13 12 13 17 16 16 17 15 14 13 11 12 13 14 16 18 19 20 20 19
5 2 2 7 8 9 9 10 13 18 19 15 13 15 17 21 21 15 8 5 4 9 11 13 15 16 18 17 11 11 9 6 10 13 8 6 4 5 3 1 2 3 3 2 1 1 2 4 4 7 12 13 12 12 10 10 12 12 14 16 15 16 18 19 20 20 19 20 19 18 21 21 17 16 18 14 11 10 9 11 14 15 17 19 20 21 19 19
6 3 3 3 7 10 7 8 13 14 16 16 16 15 16 23 26 17 9 9 8 8 13 20 18 12 16 19 15 17 17 14 16 15 8 8 4 5 4 3 5 6 5 4 2 2 3 1 2 3 8 10 10 11 11 12 14 15 17 17 16 17 19 20 19 19 19 21 22 22 22 19 15 15 14 11 9 9 10 13 15 15 17 19 20 19 18 19
13 6 6 4 6 11 10 9 11 10 12 15 15 13 16 24 25 17 10 14 16 11 12 19 19 11 12 17 19 23 20 11 8 6 9 9 5 5 5 4 7 8 7 6 4 3 4 2 2 1 6 7 6 9 11 11 13 18 21 18 17 18 18 17 17 16 16 18 20 19 16 13 11 10 10 9 9 10 11 13 14 13 16 19 18 17 17 19
17 8 8 6 5 10 12 11 13 13 12 11 13 15 18 20 18 14 11 12 17 17 14 16 15 10 12 19 19 14 5 5 6 5 6 5 3 4 4 5 8 9 7 7 5 4 5 4 2 3 4 4 1 3 4 6 9 14 13 15 19 21 20 17 15 16 17 16 14 12 11 10 9 8 10 11 10 10 11 11 11 13 16 17 16 15 16 18
Wind_Direction
12 10 9 9 8 9 10 10 10 10 11 11 9 8 7 7 6 6 8 9 10 9 8 8 12 19 56 141 123 107 88 80 64 53 49 15 343 344 348 351 354 356 360 1 351 330 287 266 339 330 264 237 238 82 158 74 349 267 256 266 289 77 81 49 2 340 315 304 329 343 356 349 330 343 358 340 254 240 285 48 45 40 29 16 23 30 25 26
10 9 8 7 7 8 8 8 7 8 9 9 8 7 7 6 4 4 6 8 10 10 10 7 6 11 5 175 167 129 100 101 62 54 36 358 351 352 351 356 358 355 0 360 354 350 342 344 343 325 293 264 149 176 196 121 308 271 295 283 49 62 62 43 28 334 306 303 322 329 345 346 330 335 352 351 335 10 45 39 22 6 6 7 24 35 30 30
8 7 6 5 5 5 6 6 5 6 7 8 7 6 6 5 3 3 6 8 12 11 10 7 5 10 31 173 188 179 142 180 53 45 12 357 357 354 351 355 355 353 0 356 349 349 338 333 326 324 309 281 146 172 254 188 300 306 305 288 81 57 79 92 23 307 299 304 314 321 329 325 337 333 344 342 325 36 53 27 9 0 356 2 26 35 29 30
6 5 4 4 4 4 4 3 3 5 5 6 6 5 5 4 2 2 5 10 14 12 10 8 10 12 44 151 185 183 200 229 51 15 345 356 352 347 346 348 352 351 355 343 333 326 308 301 301 319 302 281 136 209 258 64 0 342 301 358 81 42 148 111 353 303 299 301 309 315 315 324 358 320 335 343 330 54 51 23 9 358 0 17 34 35 31 32
3 3 2 2 3 3 2 1 1 2 4 5 5 5 4 3 1 2 5 12 16 10 8 11 21 27 54 112 165 169 218 252 47 340 332 345 343 342 338 343 351 351 352 331 320 316 303 298 290 293 278 289 327 238 249 73 0 267 255 70 78 19 63 95 333 300 299 300 302 306 315 333 331 317 3 1 22 58 38 18 11 11 27 38 42 40 37 36
1 360 360 0 1 2 1 359 359 0 2 3 4 4 3 2 1 1 5 12 12 3 2 10 39 54 73 91 123 162 249 300 13 327 329 335 335 341 338 346 354 356 352 324 316 320 320 319 304 311 295 297 314 303 10 75 336 273 134 92 77 29 44 70 316 285 291 300 304 313 328 318 309 354 41 34 55 56 40 27 25 42 48 47 48 45 41 38
358 357 357 358 359 360 359 358 357 358 360 1 2 2 2 2 359 0 4 9 5 356 358 8 53 81 91 93 98 122 84 67 355 326 330 332 331 346 351 357 1 3 358 336 336 336 336 332 331 343 296 277 249 325 353 344 235 252 307 91 87 37 36 8 293 279 288 302 309 311 303 296 309 21 66 66 55 50 56 48 51 60 54 51 51 45 43 38
356 355 355 355 356 357 357 357 356 357 358 360 1 0 1 0 358 359 1 4 2 356 1 10 41 119 127 112 112 110 77 30 330 329 335 337 338 1 8 6 4 8 6 355 356 337 328 335 348 343 288 320 43 311 348 316 235 213 310 52 94 189 109 191 252 281 296 306 308 302 294 301 27 3 103 71 45 63 74 66 67 67 59 55 49 44 43 37
353 353 353 353 353 355 355 355 355 355 357 358 360 359 358 359 356 356 358 360 1 2 10 14 22 165 189 244 269 208 70 334 327 340 347 350 353 12 13 10 8 2 349 354 353 329 322 343 2 355 311 9 355 315 342 306 227 163 315 341 296 241 141 191 195 163 286 334 319 307 307 29 93 238 115 69 49 82 85 78 77 70 67 59 49 45 39 37
351 352 351 351 351 352 353 353 354 354 355 356 359 359 356 356 353 352 356 356 1 8 27 39 49 127 185 224 254 227 70 341 342 352 354 355 357 10 8 14 18 3 340 346 356 348 349 348 352 356 312 271 283 293 263 282 351 342 305 299 272 229 138 175 156 139 148 11 332 316 314 334 154 210 138 67 60 96 93 83 81 69 69 60 52 47 37 38
349 350 350 349 348 350 352 352 352 352 354 355 357 359 355 352 350 349 352 354 1 8 36 70 72 74 166 231 255 126 66 359 350 357 357 358 352 2 12 19 23 7 343 338 9 3 338 331 316 275 300 310 278 251 200 251 328 316 304 297 253 166 138 156 146 160 172 4 333 313 306 288 187 198 115 54 56 100 95 81 79 68 66 57 53 48 37 36
347 348 348 347 347 349 349 349 351 351 352 353 355 357 353 349 346 345 347 351 358 1 9 93 90 63 46 92 49 59 58 357 349 357 359 359 346 357 17 20 19 13 345 333 14 3 311 323 263 256 321 331 293 269 173 146 290 284 288 301 183 137 142 156 142 171 180 354 325 304 302 244 173 140 87 39 59 99 90 81 76 68 65 55 52 46 40 35
345 346 346 345 345 347 348 348 349 349 351 351 352 354 350 346 342 340 343 349 354 357 342 288 171 32 339 87 63 7 327 337 350 357 357 0 346 338 1 7 6 0 340 336 354 311 280 294 259 269 322 289 297 351 114 185 250 246 224 278 222 137 152 159 132 165 172 343 309 313 325 268 140 125 111 29 98 103 87 85 80 73 68 56 51 46 44 37
342 343 343 343 344 345 346 346 347 348 349 349 349 349 347 342 337 336 338 347 352 351 341 331 170 234 325 92 72 305 336 337 356 352 348 359 343 318 340 353 345 311 313 322 300 286 269 265 262 267 257 271 308 349 241 196 201 211 159 208 223 94 144 140 108 158 186 324 325 332 325 301 330 35 17 58 111 108 93 94 85 78 69 57 52 42 42 38
339 341 342 341 342 344 345 345 346 346 347 348 346 345 344 337 332 332 333 348 354 350 358 51 142 233 147 116 211 305 4 351 357 347 345 359 348 319 334 335 317 283 294 292 272 268 258 239 246 270 255 222 259 279 273 220 185 195 190 225 27 7 87 122 98 65 20 351 355 350 319 300 318 334 22 93 114 110 103 101 89 82 68 55 49 39 37 33
338 339 340 339 341 343 344 344 344 345 345 346 343 342 341 332 326 325 326 350 354 358 54 73 153 290 197 125 151 167 19 357 345 346 345 351 345 320 321 313 286 272 271 269 272 252 246 238 228 298 283 233 264 298 308 288 199 180 357 335 337 330 324 99 109 73 40 4 350 330 291 293 310 341 74 112 116 111 111 106 96 83 68 56 43 36 29 22
337 338 339 339 340 342 343 343 344 344 344 344 344 344 341 329 324 317 322 352 355 88 90 55 200 289 175 104 140 159 11 326 327 342 341 342 338 315 315 300 271 278 255 236 248 245 234 227 208 295 239 236 329 337 320 310 284 309 345 331 311 309 307 293 162 106 64 8 320 274 251 278 308 354 104 121 115 117 116 107 101 82 72 58 40 31 20 16
335 338 340 338 339 342 343 343 344 344 343 345 347 344 340 335 326 310 348 353 346 169 113 71 95 256 148 97 151 72 348 301 301 330 337 338 334 314 308 291 285 293 261 232 220 254 280 228 218 265 246 257 0 356 320 321 320 303 315 312 300 298 285 278 274 105 75 341 301 276 270 286 309 356 118 122 115 118 110 108 106 82 74 48 34 25 15 11
333 337 340 338 339 342 343 344 344 344 344 347 351 347 344 348 328 259 20 358 350 184 302 3 346 275 256 58 50 340 329 293 293 314 331 338 336 314 287 273 266 266 276 291 328 332 329 289 249 270 301 350 353 350 312 314 310 293 294 286 282 289 277 275 295 89 67 324 289 291 300 300 309 315 132 125 116 114 109 114 102 82 76 40 33 19 9 4
332 336 339 339 340 342 344 344 343 347 350 353 358 356 351 357 334 231 13 360 43 42 294 295 320 271 278 38 356 336 318 258 267 291 340 342 336 313 273 256 249 246 279 336 329 337 348 296 286 311 341 343 333 321 306 302 294 286 284 279 280 286 285 292 307 101 76 333 285 297 304 303 307 296 141 133 121 116 116 115 97 84 67 36 28 13 3 354
332 334 337 339 340 343 346 344 344 349 354 1 11 18 14 8 347 329 347 338 91 59 276 286 315 277 296 353 337 346 339 216 224 242 357 350 327 300 305 291 287 297 0 339 291 251 256 287 312 56 357 334 317 296 299 291 285 285 281 287 291 289 304 318 317 110 57 331 293 302 308 304 303 210 143 141 128 119 112 103 88 66 49 33 18 4 355 350
331 332 337 338 339 344 345 345 346 349 356 10 29 52 74 52 351 268 304 291 240 143 215 250 257 254 268 262 336 358 296 229 211 154 0 348 316 317 341 322 314 324 340 319 288 288 294 290 76 57 7 304 260 256 281 282 280 283 284 290 291 313 336 322 137 89 339 309 303 314 311 305 300 141 147 147 126 114 104 92 77 56 42 24 12 3 353 354
330 333 335 337 340 342 345 347 347 353 6 25 48 63 87 137 175 165 232 282 281 169 177 230 233 197 164 147 39 336 258 268 221 83 9 346 330 343 321 323 329 318 312 314 328 317 297 326 75 57 105 237 255 246 270 280 277 276 283 289 292 334 351 309 150 340 320 309 320 316 302 300 126 134 144 139 127 121 120 107 98 81 44 24 14 7 359 357
331 334 332 337 340 340 344 345 348 3 18 42 56 62 104 166 148 107 257 272 275 182 149 201 277 284 150 112 30 303 285 332 314 30 17 354 335 321 313 343 329 308 312 350 323 283 277 319 64 118 165 265 282 276 276 285 292 288 280 286 302 336 333 301 310 320 312 316 47 340 308 289 152 160 163 143 144 142 138 119 111 103 48 31 15 9 0 353
333 333 333 338 339 341 340 338 359 10 21 49 36 41 83 148 145 113 320 271 254 215 168 165 189 236 129 108 28 353 338 293 38 18 19 1 332 316 324 1 302 305 335 9 302 277 275 335 72 190 216 269 289 288 299 328 296 297 45 40 342 331 314 308 317 325 316 285 53 18 326 290 174 185 172 155 169 160 154 151 113 73 39 30 8 3 353 347
332 334 335 337 339 343 336 327 7 1 23 87 358 346 10 102 156 137 342 270 247 179 141 173 186 161 147 132 42 45 266 209 83 43 28 1 315 291 315 308 200 308 333 344 299 285 281 61 85 265 274 282 285 280 314 45 295 296 61 32 343 313 307 316 320 326 316 294 332 358 294 277 275 226 172 162 179 169 160 147 100 49 33 22 359 355 350 348
332 337 334 337 342 346 343 323 343 356 32 196 324 318 330 119 151 141 311 268 247 158 126 175 281 170 138 57 2 236 280 138 118 103 64 350 312 218 290 298 268 284 358 338 297 273 125 136 208 276 289 280 284 280 34 28 290 306 39 344 328 316 305 311 311 302 297 300 301 277 246 258 284 255 167 163 179 176 171 130 73 44 18 5 356 354 352 351
330 340 335 338 343 351 5 312 314 3 344 287 312 311 343 128 147 154 294 281 257 114 106 118 92 136 129 72 217 247 331 114 199 143 89 323 329 200 260 289 296 298 86 255 280 328 63 352 247 291 284 277 294 352 60 354 259 336 21 324 298 294 284 286 291 289 297 303 291 261 225 239 273 235 158 171 197 195 179 66 41 24 8 359 356 353 351 352
328 341 335 334 337 339 342 300 276 242 260 288 308 320 108 126 161 231 276 277 198 122 64 107 124 140 158 182 211 227 243 212 266 33 157 250 359 352 274 312 314 294 245 233 259 283 38 42 19 316 276 281 5 64 59 325 257 339 338 284 259 253 258 265 271 289 301 287 273 257 215 230 275 249 180 193 214 215 219 25 19 9 4 358 353 351 350 350
324 340 335 332 333 317 306 288 230 230 265 282 102 117 120 143 233 270 243 250 307 103 92 154 168 144 250 253 216 193 207 217 167 117 197 200 125 182 227 352 292 273 255 237 250 261 145 93 172 254 280 309 67 80 54 335 295 305 290 276 271 260 262 265 263 287 292 270 265 232 197 227 273 261 226 216 176 149 350 339 358 360 356 354 352 351 349 344
318 334 332 325 316 287 289 259 219 233 245 206 115 122 149 209 237 256 248 253 1 152 145 168 156 65 262 273 243 195 221 220 155 220 242 187 195 211 197 219 236 257 250 236 235 236 209 206 198 143 294 305 157 206 221 234 270 278 266 289 305 294 287 273 244 230 253 264 271 124 149 234 246 246 187 131 109 101 48 344 351 352 349 352 353 349 344 336
311 324 324 317 286 248 254 244 230 236 207 155 123 154 242 268 224 232 230 115 197 193 161 136 94 112 150 342 262 245 273 250 175 214 270 6 254 251 244 254 295 302 271 260 255 240 222 204 142 101 189 216 207 219 208 214 238 248 256 304 319 308 306 277 240 230 250 258 129 114 81 264 247 262 244 153 130 116 68 22 2 355 350 351 349 341 335 332
301 316 314 301 263 236 240 238 231 223 190 141 163 229 260 261 243 230 203 196 319 107 111 86 112 145 140 269 261 222 168 245 193 164 148 144 254 251 220 184 211 282 277 301 314 286 270 143 138 149 165 187 218 235 239 219 206 225 256 322 303 301 306 286 283 281 268 257 139 103 0 295 268 274 236 169 135 108 59 29 8 360 352 347 342 333 329 330
292 306 304 290 258 241 231 227 225 210 168 135 215 235 226 236 250 304 214 222 347 96 126 99 142 184 206 238 255 162 217 240 172 157 196 178 220 238 222 193 186 222 261 280 295 278 268 269 166 172 150 158 202 239 320 335 115 174 9 341 265 257 265 279 304 303 293 297 275 271 311 279 301 4 126 135 130 114 49 18 3 356 348 341 334 328 329 329
280 291 294 284 261 246 224 220 222 199 175 197 228 223 221 236 245 255 248 233 110 187 159 139 212 252 245 233 206 154 237 250 134 168 218 202 230 254 240 193 185 196 213 240 278 240 246 254 123 106 5 165 187 178 346 309 204 144 89 206 241 251 254 269 297 297 302 305 281 230 222 252 286 97 118 128 150 146 19 358 354 346 341 336 330 328 329 328
270 282 285 273 259 242 217 219 216 189 187 219 224 224 227 238 239 220 219 155 148 206 309 246 220 246 267 239 183 170 208 239 172 203 225 212 236 246 219 157 173 191 198 222 256 231 254 253 120 123 37 87 65 344 323 296 265 154 165 195 100 48 330 273 286 300 297 287 269 201 238 267 258 168 142 146 168 195 331 346 348 339 335 332 329 329 328 327
248 261 266 256 253 237 214 215 206 185 200 222 224 232 232 237 239 230 173 113 76 24 304 278 218 213 264 263 224 181 169 215 189 199 238 203 225 220 190 162 174 192 199 230 249 203 269 268 163 162 163 93 356 301 179 314 309 206 197 168 99 82 71 235 271 303 266 269 265 229 258 271 270 256 161 166 194 321 330 342 341 332 334 332 329 329 327 327
233 252 255 241 243 233 210 205 194 187 215 225 233 242 237 228 227 214 155 125 134 168 223 256 222 193 243 265 260 162 153 212 183 186 238 214 205 182 171 176 183 189 173 120 237 216 348 265 204 155 128 123 173 243 190 194 1 50 318 352 127 228 226 182 205 277 271 272 280 273 275 264 250 255 159 179 280 336 332 336 334 330 335 333 330 330 327 328
223 265 248 213 219 216 198 188 181 201 219 218 234 242 231 229 226 195 159 163 173 176 221 245 230 226 237 244 262 157 166 222 219 206 229 211 207 169 165 176 174 174 153 133 190 264 101 237 230 34 58 120 171 222 212 198 143 106 161 225 162 243 249 234 218 254 266 277 290 289 295 278 233 194 133 209 325 338 329 332 331 330 334 332 331 330 327 329
205 258 225 180 186 188 176 170 182 208 217 222 233 235 201 222 222 188 178 196 199 202 233 244 225 236 249 240 249 232 210 230 232 232 222 201 231 192 173 173 156 152 137 114 225 3 159 219 226 56 67 154 191 210 219 217 178 174 204 205 189 180 206 255 252 198 235 269 279 286 289 277 141 111 105 313 330 335 329 332 329 328 331 331 330 329 328 329
198 242 216 169 171 165 156 170 203 201 220 230 233 236 217 212 214 188 190 207 219 221 239 253 235 239 254 248 247 237 229 240 228 228 231 212 231 222 176 162 151 143 127 116 224 212 177 209 223 210 199 207 209 107 346 305 228 199 205 201 207 202 188 230 243 191 160 243 246 268 281 274 166 139 306 317 321 324 329 330 327 326 328 330 329 327 327 326
212 229 175 159 169 163 159 206 204 192 230 227 229 239 214 204 216 192 183 191 226 233 231 255 244 239 248 250 256 243 233 251 222 207 235 227 223 234 163 147 147 144 139 137 186 228 44 43 236 238 219 193 177 55 10 323 310 270 241 219 226 214 190 209 233 210 169 232 231 249 273 274 138 147 257 241 253 313 328 327 326 325 325 328 326 325 325 323
217 205 136 158 172 166 177 232 200 203 235 219 235 241 204 198 214 196 186 184 205 221 217 233 227 225 234 230 244 246 228 239 224 207 234 237 220 293 112 145 142 139 145 145 132 142 52 112 220 249 251 139 135 136 99 273 251 262 243 217 219 214 198 211 236 278 271 234 216 230 257 261 108 126 185 194 268 313 326 327 326 323 323 326 324 323 325 323
217 189 123 177 184 176 195 224 209 220 231 217 236 234 215 223 217 203 197 190 193 201 215 233 217 217 230 210 222 236 210 209 231 216 227 229 191 41 67 144 146 154 166 179 159 165 182 172 170 228 255 218 186 198 200 189 201 229 227 204 200 202 198 210 243 267 260 230 209 222 251 260 92 124 198 237 292 314 322 325 326 323 322 324 323 323 323 323
193 193 120 178 192 199 220 235 233 240 232 225 236 230 221 232 214 208 211 207 207 203 206 233 208 204 217 197 222 234 207 214 237 215 205 212 155 35 356 20 34 144 107 19 39 171 197 203 181 197 229 232 231 238 203 183 191 214 217 201 199 200 195 184 190 219 232 231 217 224 249 265 271 260 261 278 298 310 317 321 322 321 320 320 322 321 321 321
192 210 169 149 192 224 250 289 259 253 240 234 244 235 225 230 212 197 213 224 222 210 206 223 187 200 207 185 221 240 219 218 229 231 225 194 163 101 107 49 11 41 72 37 19 178 211 246 227 226 236 242 261 304 119 155 185 201 203 201 202 204 197 186 205 224 228 250 246 236 246 266 273 274 276 287 302 307 313 319 319 318 318 319 321 321 321 320
213 214 177 148 185 223 229 239 233 238 245 234 241 246 235 236 230 195 203 218 221 210 215 222 189 197 205 188 211 243 225 209 219 235 236 177 128 94 105 93 36 22 66 43 13 87 204 246 233 236 247 254 275 297 175 176 218 224 217 214 211 206 196 196 218 221 208 243 256 246 242 259 271 275 279 292 306 308 314 319 317 317 318 319 322 322 321 320
209 218 167 167 196 217 210 213 213 223 237 233 235 252 248 242 241 222 196 185 208 200 205 228 215 209 213 204 207 239 227 199 215 229 221 164 133 133 111 84 143 163 112 77 325 172 228 254 231 233 251 256 264 269 243 229 248 242 234 233 224 212 201 206 222 223 208 226 253 266 267 267 272 276 284 298 306 307 313 315 314 316 317 320 322 320 320 321
200 256 197 185 218 229 207 184 188 212 226 227 231 241 241 241 243 236 188 140 221 210 201 230 228 205 210 217 217 232 222 187 224 232 201 164 159 145 139 189 188 174 151 156 245 216 231 259 227 234 259 260 253 256 257 259 262 257 247 240 234 224 217 218 225 225 225 237 252 266 271 272 272 275 284 294 300 305 311 311 313 316 317 320 321 318 319 324
191 200 185 194 236 238 223 182 178 203 219 220 226 230 230 236 239 236 195 173 207 204 196 226 234 199 204 218 218 231 228 213 236 242 178 152 172 158 172 189 152 159 172 174 201 232 227 210 152 223 265 262 246 242 249 257 261 264 257 245 237 235 233 233 231 226 231 242 251 257 263 268 268 271 282 291 300 309 309 309 314 317 319 319 317 316 319 323
209 208 185 193 231 220 221 210 195 210 223 218 221 221 225 233 232 230 226 209 212 204 184 213 231 216 215 225 225 235 238 225 239 234 153 156 181 170 177 170 146 155 176 182 179 198 216 209 111 167 262 267 246 232 245 264 273 269 261 245 233 232 233 236 232 224 225 234 246 252 254 259 264 273 288 296 302 305 305 312 316 314 315 315 312 314 319 321
209 221 200 208 242 217 217 221 213 223 233 216 208 211 222 230 222 216 234 227 214 214 204 207 218 219 229 237 234 234 226 102 86 86 111 112 99 131 157 161 161 161 164 177 179 173 191 205 162 174 248 282 239 191 253 292 286 272 252 223 221 227 231 235 234 228 223 224 237 246 244 252 271 288 295 295 298 301 305 313 314 310 309 309 309 314 319 320
Height
829 827 826 824 823 821 820 818 816 814 813 811 809 807 805 803 801 799 797 795 793 791 790 788 787 787 786 787 787 786 785 786 787 787 790 794 795 792 790 788 786 785 784 782 782 780 779 777 777 777 777 777 777 779 781 781 782 783 784 784 781 780 784 784 782 781 779 776 773 773 775 780 780 775 773 772 773 774 772 773 773 773 774 775 777 779 780 780
829 828 826 824 823 821 820 818 817 815 813 811 809 807 805 803 801 799 797 794 793 791 790 788 787 786 785 786 786 786 786 786 786 788 793 796 794 792 790 788 787 785 784 783 782 781 780 778 778 776 776 777 778 779 782 782 783 784 783 781 782 783 784 782 781 781 779 777 776 775 776 779 781 777 775 776 775 772 775 777 776 776 775 776 778 781 782 781
829 828 826 825 823 821 820 819 817 815 813 811 809 807 805 803 801 799 797 795 793 792 790 788 787 785 785 785 785 786 786 785 787 791 794 794 793 792 790 789 787 786 784 784 783 782 781 780 779 777 778 778 778 780 783 784 783 784 784 783 784 785 784 782 782 782 780 778 779 779 778 779 780 778 778 780 776 774 781 783 781 781 779 778 780 783 783 782
830 828 827 825 823 821 820 819 817 816 814 812 809 807 805 803 801 799 797 795 793 792 790 788 787 785 785 784 785 787 786 787 792 795 794 793 792 791 790 788 787 786 785 784 783 782 781 780 778 778 780 780 778 780 783 784 785 786 784 783 785 785 784 785 785 783 781 780 782 783 781 780 779 779 780 779 778 779 784 784 784 784 783 783 785 786 786 785
830 828 827 825 824 822 820 819 817 816 814 812 809 807 805 803 801 799 797 795 793 792 790 789 787 785 785 784 786 786 787 793 797 795 794 792 791 790 789 788 787 786 785 784 783 781 780 778 777 778 780 780 779 781 782 783 787 787 782 781 784 784 786 787 785 786 785 782 784 784 783 782 779 778 780 779 781 785 786 784 784 785 785 787 789 789 788 787
830 828 827 825 824 822 820 819 817 815 814 812 809 807 805 803 801 798 797 795 794 792 790 789 788 786 786 785 786 786 789 798 797 793 793 791 790 789 788 787 786 786 785 784 783 781 780 777 777 780 781 780 781 783 782 783 787 787 782 781 784 785 787 788 786 788 787 785 786 784 783 782 781 780 780 780 782 785 785 784 785 787 789 790 791 791 791 790
830 828 827 825 824 823 821 819 817 815 813 811 809 807 805 803 800 799 797 795 794 792 790 789 788 788 787 786 787 786 790 796 794 792 792 790 790 788 787 787 786 785 785 784 783 781 781 780 779 782 783 781 783 783 783 783 786 788 785 783 787 787 788 788 787 788 787 787 786 784 783 782 782 782 781 782 783 782 784 786 787 789 791 792 792 793 793 792
830 829 827 825 824 823 821 819 817 815 813 811 809 807 805 802 800 799 797 795 794 791 789 789 788 788 787 787 787 788 792 795 793 793 791 790 789 788 788 787 786 786 785 785 785 784 783 783 782 783 783 782 784 784 783 784 784 787 785 784 788 788 788 788 787 787 787 787 785 784 784 780 781 782 782 783 782 782 785 787 789 791 793 793 794 794 794 793
831 829 827 826 824 823 821 819 817 815 813 811 809 806 804 802 800 798 797 795 793 791 789 788 787 787 787 787 786 790 795 795 793 793 791 790 789 789 788 787 787 786 786 786 785 785 784 785 785 785 785 784 785 784 784 786 785 786 785 785 788 786 787 787 787 788 788 787 785 784 782 779 780 782 783 783 782 783 786 788 791 792 793 795 796 796 795 795
831 829 828 826 824 823 821 819 817 815 813 811 809 806 804 802 800 798 797 795 793 791 789 788 787 786 787 786 787 793 796 794 794 793 791 791 790 789 789 788 787 786 786 786 786 786 785 787 786 786 787 785 785 784 784 786 785 785 785 785 785 785 786 786 787 788 788 788 786 785 782 778 779 782 785 783 780 783 786 789 792 792 794 796 797 798 797 796
831 830 828 827 825 823 821 819 817 815 813 811 808 806 804 802 800 798 797 795 794 792 790 788 787 787 787 785 788 795 796 795 795 794 792 791 791 790 789 788 788 787 787 786 787 788 787 787 786 787 787 785 784 783 782 784 784 784 785 784 780 782 786 786 787 788 788 789 787 785 782 777 779 782 783 781 779 782 786 790 792 793 795 796 797 799 799 798
832 830 829 827 825 823 821 819 817 815 813 811 809 806 804 802 800 798 796 795 794 792 791 789 788 787 786 786 791 796 796 796 796 794 793 792 792 791 790 790 789 788 788 787 788 788 788 788 787 787 785 784 782 780 782 783 783 784 786 783 778 782 790 787 786 787 787 789 787 783 781 777 778 781 779 778 780 782 787 791 793 795 797 798 799 800 800 800
832 831 829 828 826 824 822 820 817 815 813 811 808 806 804 802 799 798 796 795 793 792 791 789 788 787 787 791 796 797 796 796 796 795 794 793 792 791 790 790 789 789 788 788 788 788 788 787 788 786 784 784 781 780 783 783 784 784 784 783 778 784 792 787 783 784 786 790 786 784 788 779 771 776 776 774 779 784 789 793 795 797 798 799 801 801 801 802
832 831 829 828 826 824 822 820 818 815 813 811 809 806 804 801 799 797 795 795 793 791 790 788 789 787 789 796 798 797 797 797 796 796 795 794 793 792 791 790 789 789 788 788 788 787 787 787 788 786 784 783 781 781 782 782 783 780 783 784 777 784 790 786 784 783 785 788 782 784 792 781 768 770 772 771 778 786 791 794 796 798 800 801 802 802 802 802
832 831 829 828 826 824 822 820 818 815 814 811 808 806 804 801 799 797 795 794 792 791 790 789 789 787 791 798 798 797 797 796 797 797 795 794 793 792 791 790 789 788 788 788 788 787 787 787 787 785 782 780 781 782 777 774 778 777 783 786 780 785 788 785 786 785 786 786 780 785 791 782 771 770 771 774 780 786 792 796 797 799 801 802 802 803 803 803
832 831 829 828 826 824 822 820 818 816 813 811 808 806 803 800 798 796 795 794 792 791 790 790 789 788 793 798 797 797 797 797 797 796 795 794 793 792 791 790 789 788 788 788 788 788 787 786 786 785 782 780 779 780 774 771 774 773 781 789 788 791 789 786 789 787 787 787 782 788 793 786 775 771 774 779 783 787 793 796 798 800 801 802 804 804 804 804
832 831 829 828 826 824 822 820 818 816 813 811 808 804 801 799 796 795 794 793 792 791 791 791 789 789 794 797 797 797 798 798 797 796 795 794 793 792 791 790 788 788 787 787 788 786 785 785 785 785 781 779 775 777 782 784 783 779 782 791 790 790 791 790 791 788 786 790 788 786 789 786 775 773 780 782 784 788 792 796 798 801 802 803 804 805 805 804
832 830 829 828 826 824 822 820 818 815 813 810 807 803 801 798 795 794 794 793 791 791 791 791 791 795 799 798 797 798 798 797 797 796 796 793 792 791 791 790 787 788 786 786 786 785 784 782 782 781 776 777 778 782 792 794 794 794 793 796 793 791 792 789 787 788 788 790 789 784 785 783 775 776 784 784 785 789 792 797 800 801 803 805 805 806 805 805
831 830 829 828 826 824 822 820 818 816 813 810 806 802 799 797 794 793 794 793 792 796 798 796 796 801 802 798 797 798 797 797 797 796 796 794 792 791 790 789 788 788 786 785 785 783 784 782 781 782 780 784 789 791 794 794 796 798 797 798 799 795 791 784 781 786 790 791 787 784 785 782 776 778 785 787 787 791 794 798 801 803 804 805 806 806 806 806
831 830 829 828 826 824 823 821 819 817 814 810 806 801 800 802 799 795 796 796 798 801 802 800 800 801 799 798 798 797 796 797 796 797 796 794 793 791 789 787 787 786 786 790 789 785 788 787 783 785 789 792 794 793 793 793 794 797 797 796 794 792 787 781 781 785 789 794 790 782 783 781 776 777 785 790 789 792 796 799 802 803 804 805 805 806 806 806
831 830 828 828 826 825 823 821 819 818 816 813 809 806 810 814 812 810 807 801 801 803 802 801 802 801 799 800 799 798 798 797 796 796 795 794 793 792 788 785 788 787 787 791 789 785 789 789 786 789 793 795 795 795 795 795 795 795 795 794 790 788 786 782 783 786 788 795 792 782 783 781 773 777 786 789 790 794 797 800 803 802 803 804 804 806 805 805
831 829 828 828 826 825 823 821 820 819 817 815 812 813 818 821 820 821 819 809 802 802 803 802 802 801 800 800 800 799 800 798 797 796 795 794 792 793 790 787 791 790 788 789 788 790 790 787 788 793 796 797 797 796 797 796 795 794 791 792 791 787 787 785 783 787 788 791 788 783 786 780 772 778 786 788 791 797 799 801 802 802 803 804 803 804 803 802
831 829 829 828 825 825 823 821 821 819 818 816 816 818 820 822 821 821 823 816 805 800 801 801 800 799 799 800 800 800 799 798 798 797 797 796 793 795 794 792 793 792 790 790 793 801 795 787 792 797 798 798 796 796 797 794 790 789 788 792 792 789 796 796 789 789 787 786 787 786 785 777 776 785 788 790 794 797 799 799 801 802 803 803 802 802 801 800
830 829 828 827 826 824 822 822 821 820 819 818 819 821 820 821 821 821 820 812 804 800 799 800 799 799 798 800 800 799 799 799 799 799 799 798 796 797 796 796 797 793 791 794 799 803 796 792 797 799 799 799 796 794 793 793 790 786 789 795 795 797 804 802 795 791 784 784 787 787 783 774 779 789 789 791 795 795 796 796 798 801 800 801 800 799 799 799
829 829 827 827 826 823 822 822 820 821 820 820 821 820 820 821 819 822 820 810 804 801 800 800 800 800 799 800 800 799 799 800 800 800 801 801 800 799 797 798 799 794 794 799 803 800 795 798 802 801 800 799 799 794 791 797 796 788 793 802 802 804 806 801 798 793 787 787 783 788 795 780 770 779 785 790 793 793 794 794 797 798 797 798 797 797 798 797
829 828 827 827 825 823 822 820 821 821 820 821 822 819 820 820 819 821 819 813 805 798 799 801 799 800 800 800 800 800 801 801 801 802 802 803 802 801 800 797 797 798 799 802 802 798 797 802 805 803 802 801 800 796 794 799 798 793 800 807 805 805 804 801 800 797 793 790 780 787 802 790 770 768 777 786 788 789 792 792 794 795 795 796 796 796 796 795
828 827 827 826 824 823 822 821 822 820 820 822 821 820 820 818 820 821 818 819 808 795 798 801 800 801 800 801 801 801 804 802 802 803 802 803 801 801 802 797 796 798 800 804 804 799 799 804 806 804 804 803 799 796 799 802 800 798 803 807 803 802 802 800 800 798 791 787 783 783 792 794 780 766 767 777 782 785 788 789 791 793 793 794 794 794 793 793
827 827 826 825 824 823 823 822 822 820 821 821 819 821 820 818 822 818 821 828 810 791 795 798 800 801 799 801 801 801 802 800 802 803 802 804 802 800 801 798 798 799 800 807 808 800 800 806 807 806 806 803 799 801 804 804 802 800 803 805 801 800 800 798 797 794 787 790 792 782 784 795 783 763 765 774 776 780 784 787 789 790 792 792 792 793 791 791
827 826 825 825 824 823 823 823 822 821 821 820 820 820 818 821 821 815 826 831 805 790 795 798 800 801 799 801 801 799 800 799 801 802 801 803 801 800 802 800 801 803 802 805 805 800 803 808 808 808 808 803 803 807 808 805 803 802 804 803 799 798 795 793 792 788 790 799 797 782 780 790 778 759 763 771 772 776 781 784 786 788 791 792 791 792 790 788
827 826 825 824 823 823 823 822 822 821 820 820 820 819 819 822 819 822 835 825 800 795 798 797 801 802 800 800 798 799 800 800 800 801 801 802 801 801 804 805 805 805 805 806 805 801 804 810 809 810 809 805 808 811 810 809 805 803 804 799 793 789 785 784 783 786 796 797 786 776 776 785 783 764 758 766 772 778 782 783 786 789 791 792 791 790 789 789
826 825 825 824 823 824 823 822 821 820 820 819 819 820 821 818 817 829 833 811 798 801 799 799 804 801 802 804 802 799 799 799 800 802 800 800 801 800 802 805 804 805 806 804 805 804 806 808 807 809 812 808 810 810 810 810 807 805 801 795 792 788 782 782 783 794 805 794 778 778 781 788 788 770 761 770 776 780 785 786 789 792 791 791 790 789 790 791
825 824 824 823 823 823 823 822 820 820 820 819 820 820 819 823 824 823 814 799 800 803 798 803 807 803 806 810 806 802 802 801 799 802 803 804 805 801 803 805 803 808 804 796 802 805 803 805 806 810 813 811 810 807 807 807 805 803 797 796 801 798 793 792 790 793 795 784 778 785 792 792 781 764 762 773 778 781 785 788 790 792 791 789 790 790 790 790
824 823 823 822 822 822 822 821 820 821 819 818 821 816 818 833 828 811 800 797 801 803 800 805 808 808 811 810 805 804 808 804 798 803 808 811 810 805 809 812 811 813 807 798 802 801 799 804 808 810 809 810 810 804 803 802 801 800 798 801 805 806 810 806 795 789 785 779 778 785 796 794 774 758 757 768 778 781 783 787 789 790 790 790 791 791 790 789
822 822 822 821 821 821 820 821 820 819 819 819 819 817 827 836 820 804 800 797 799 803 805 807 808 810 812 807 802 803 807 803 799 807 810 810 811 805 806 814 814 811 808 806 803 801 801 801 804 808 807 809 810 806 806 803 801 803 802 804 805 807 814 811 800 795 793 790 787 792 801 791 772 760 760 769 778 780 782 785 787 788 789 790 791 790 790 789
821 821 820 819 820 819 818 820 819 819 819 818 817 822 831 826 809 803 802 796 798 803 805 808 808 809 806 802 802 804 804 803 803 808 808 805 805 799 796 804 811 809 808 808 802 800 801 796 803 813 809 809 810 809 811 806 804 808 806 806 808 805 806 808 806 806 812 813 802 797 794 777 766 767 769 775 779 778 781 783 785 788 788 790 791 790 790 790
820 820 819 818 818 817 818 818 817 819 818 816 821 824 819 809 800 800 798 795 798 800 803 807 806 805 802 796 800 807 807 806 807 806 803 800 799 796 794 799 806 805 803 802 797 798 799 797 810 818 811 813 815 811 813 809 806 808 807 808 811 810 811 814 815 813 824 827 802 787 784 769 763 769 771 776 779 778 781 783 785 788 788 790 791 790 790 789
819 819 818 816 816 816 816 817 817 819 816 815 820 817 806 797 792 792 794 798 801 800 804 808 802 799 798 794 795 804 809 807 806 805 801 798 795 793 796 801 803 801 801 802 797 797 800 800 809 814 811 817 820 814 814 815 811 808 807 809 812 816 818 823 831 827 823 817 791 776 780 774 769 773 774 776 779 779 780 783 786 787 788 790 789 789 789 788
818 818 816 814 814 814 815 816 816 817 815 815 817 809 800 795 789 788 793 798 801 801 806 808 800 793 796 796 791 797 808 805 801 803 800 795 793 790 793 801 805 804 805 809 804 801 805 804 808 817 817 818 821 817 813 815 815 812 812 812 812 819 820 821 836 836 820 810 791 775 777 776 769 769 773 776 778 781 782 784 786 787 787 788 787 787 787 785
818 818 814 810 811 812 813 815 816 816 814 815 815 805 795 791 787 787 791 794 797 801 803 801 796 792 792 793 791 793 802 800 795 799 797 792 789 788 789 794 803 809 809 811 808 804 807 807 809 819 821 817 818 815 808 809 815 817 817 813 811 819 820 815 824 826 817 814 806 791 783 775 766 765 772 777 778 782 785 785 786 787 787 787 786 786 784 783
818 818 811 807 809 810 812 815 815 815 812 808 805 798 792 789 787 787 789 790 793 796 796 794 794 793 789 788 790 791 794 793 792 794 793 789 785 786 788 789 799 811 814 815 813 809 809 807 807 819 826 820 813 808 802 801 807 812 813 814 815 819 820 818 819 819 820 821 819 813 796 773 767 773 776 777 780 783 786 786 786 786 785 786 786 785 783 782
817 815 808 806 809 809 812 815 813 811 807 801 796 791 790 789 787 788 789 790 790 788 788 790 790 789 787 787 788 789 790 791 791 791 790 788 784 783 786 788 795 808 815 818 817 812 810 806 806 815 821 814 806 807 810 807 805 804 804 806 811 813 818 826 824 821 830 829 819 820 808 777 768 776 775 776 782 783 785 785 784 784 785 785 785 784 783 781
814 811 806 807 808 808 811 811 806 804 801 794 789 787 788 787 786 788 789 792 794 790 789 791 789 787 787 787 786 787 789 789 789 790 788 783 780 782 786 790 795 801 807 813 814 812 810 810 809 806 806 809 812 813 816 815 810 807 804 802 803 806 813 824 822 820 832 829 815 824 819 784 766 773 776 779 782 782 783 783 783 784 785 785 784 783 783 781
810 807 806 808 807 808 810 806 801 801 794 787 785 784 784 785 786 785 786 791 794 792 792 790 787 787 786 785 787 787 788 788 784 785 785 779 781 793 796 795 798 800 801 808 812 813 812 814 814 806 798 807 817 816 814 815 815 812 808 804 804 804 806 812 811 814 825 822 817 830 819 779 765 774 777 778 779 779 780 781 782 785 784 784 784 781 780 779
805 804 806 808 807 808 807 798 794 793 789 786 787 785 783 784 783 782 783 787 787 787 789 786 782 784 782 782 785 783 784 788 781 779 780 776 787 805 805 799 800 800 800 804 805 807 808 807 813 814 806 805 810 812 814 817 816 811 803 802 805 805 808 813 815 822 828 818 816 828 810 774 767 774 774 775 775 775 778 780 782 784 784 784 783 781 779 778
803 802 804 806 806 806 801 791 788 786 783 785 785 782 783 783 778 777 779 780 778 778 782 781 779 780 781 783 785 781 780 783 779 778 780 781 795 810 809 805 805 802 804 807 803 803 805 800 801 807 806 797 791 793 800 806 810 807 801 800 805 806 810 816 820 826 826 813 808 812 799 775 769 773 772 772 773 774 777 780 782 784 784 784 783 781 779 778
798 795 798 805 807 805 799 794 793 787 781 782 781 775 777 777 773 774 776 774 772 773 775 777 779 781 782 785 787 783 780 780 779 780 782 788 802 811 811 811 811 808 810 811 807 806 808 805 797 791 787 780 774 780 789 794 800 803 801 800 802 805 807 814 821 820 816 813 805 795 790 783 777 776 775 773 773 776 777 780 783 784 783 782 781 780 778 776
790 782 784 796 800 800 799 796 794 788 781 780 777 769 769 771 770 772 772 768 767 770 773 774 776 778 779 782 785 782 778 779 779 778 779 790 805 813 813 813 814 813 812 812 811 810 812 811 801 791 786 779 776 782 790 793 794 795 797 797 798 802 807 815 817 809 809 817 804 784 785 788 780 775 774 772 773 776 777 781 783 782 782 781 779 778 777 775
783 773 770 776 779 782 788 788 787 787 783 779 774 767 767 770 768 766 767 769 768 768 772 772 768 768 770 774 780 777 774 780 783 777 779 791 803 812 815 814 815 815 815 816 815 812 814 811 800 794 793 787 784 786 789 794 794 791 792 794 793 798 805 811 809 802 804 809 795 780 783 784 777 773 772 772 774 776 779 782 782 781 780 778 777 776 775 773
775 773 769 768 765 763 767 773 779 783 780 779 774 767 767 768 761 757 762 770 772 769 769 765 759 762 766 768 773 770 767 775 776 770 776 789 798 807 812 814 815 815 817 819 816 815 816 811 802 800 799 794 792 791 791 795 795 791 790 790 790 793 797 799 800 798 798 796 786 783 785 781 776 774 771 772 774 776 779 781 780 780 779 777 777 775 773 773
765 765 765 767 764 758 758 763 771 775 774 773 768 761 762 762 753 750 754 760 765 765 764 759 753 757 763 764 766 761 755 758 759 758 771 786 794 801 804 805 810 816 818 818 817 817 817 814 810 809 809 802 797 796 797 797 796 793 790 787 788 791 791 790 791 793 796 793 787 787 788 780 773 770 769 771 773 776 780 780 779 779 779 777 776 774 773 773
756 756 757 763 762 757 757 757 762 767 764 758 756 754 755 751 744 747 750 745 746 750 753 754 753 756 760 760 758 753 749 754 759 762 771 780 786 791 794 796 802 810 816 817 816 815 816 816 814 815 816 807 797 799 801 798 799 796 789 787 788 788 785 780 778 780 786 790 789 788 787 778 768 765 768 770 773 777 779 779 780 779 779 778 776 774 775 774
753 755 755 759 757 750 750 752 756 759 746 737 742 745 742 739 738 746 748 738 733 738 743 746 751 755 755 751 751 753 758 767 775 777 780 783 786 788 791 794 795 800 808 813 813 812 812 814 815 816 818 811 804 806 808 810 812 796 778 778 782 778 776 773 770 771 775 780 785 784 777 768 763 765 769 771 774 778 779 780 781 781 779 777 775 775 776 775